Regional Weather Roundup
Issued by NWS

Home | Current Version | Previous Version | Text Only | Print | Product List | Glossary On
Versions: 1 2 3 4 5 6 7 8 9 10 11 12 13 14 15 16 17 18 19 20 21 22 23 24 25 26 27 28 29 30 31 32 33 34 35 36 37 38 39 40 41 42 43 44 45 46 47 48 49 50
000
ASUS43 KMPX 260310
RWRMN
WEATHER ROUNDUP FOR MINNESOTA
NATIONAL WEATHER SERVICE TWIN CITIES/CHANHASSEN MN
1000 PM CDT MON SEP 25 2017


NOTE: "FAIR" INDICATES FEW OR NO CLOUDS BELOW 12,000 FEET WITH NO
SIGNIFICANT WEATHER AND/OR OBSTRUCTIONS TO VISIBILITY. N/A MEANS
CURRENT SKY AND/OR WEATHER CONDITIONS ARE NOT AVAILABLE.

MNZ060>063-068>070-260400-
   Twin Cities Metro

CITY           SKY/WX    TMP DP  RH WIND       PRES   REMARKS
TWIN CITIES    CLOUDY    59  58  96 N6        29.97F
ST PAUL        LGT RAIN  59  58  96 N3        29.98F
CRYSTAL        CLOUDY    58  53  84 N6        29.97F
LAKEVILLE      RAIN      57  57 100 CALM      29.97F
EDEN PRAIRIE   CLOUDY    59  56  89 N6        29.97F
SOUTH ST PAUL  LGT RAIN  59  58  96 N3        29.97F
LAKE ELMO      RAIN      59  57  94 N5        29.99S
$$
MNZ001>005-007-008-013>017-022>024-027-028-260400-
   Northwest Minnesota

CITY           SKY/WX    TMP DP  RH WIND       PRES   REMARKS
BEMIDJI        CLOUDY    50  48  93 NE8       30.07S
HALLOCK          N/A     52  48  87 N6        30.12F
ROSEAU         MOCLDY    48  45  87 N6        30.10F
WARROAD        CLOUDY    52  46  82 N8        30.10F
THIEF RVR FALL CLOUDY    52  48  87 N8        30.10S
CROOKSTON      CLOUDY    52  48  87 N6        30.10F
FOSSTON        CLOUDY    48  48 100 NE5       30.08S
DETROIT LAKES  DRIZZLE   52  50  93 N5        30.06S
MOORHEAD       CLOUDY    52  48  87 N7        30.08S
PARK RAPIDS    CLOUDY    54  49  83 NE10      30.04F
MAHNOMEN       CLOUDY    51  48  88 NE7       30.07S
$$
MNZ006-009>011-018-025>026-260400-
   North Central Minnesota

CITY           SKY/WX    TMP DP  RH WIND       PRES   REMARKS
BAUDETTE       CLOUDY    50  48  93 NE5       30.10S
FLAG ISLAND    CLOUDY    52  46  82 NE8       30.10F
INTL FALLS     CLOUDY    53  48  83 NE7       30.09S
WASKISH        CLOUDY    50  48  93 NE3       30.08F
BIG FORK       DRIZZLE   52  50  93 CALM      30.07S
LONGVILLE      CLOUDY    54  52  94 NE3       30.05S
GRAND RAPIDS   CLOUDY    53  50  89 N6        30.07R
CRANE LAKE     CLOUDY    52  50  93 N5        30.09S
ORR            CLOUDY    52  48  87 CALM      30.04S
WALKER         CLOUDY    51  49  90 N6        30.05F
$$
MNZ012-019>021-037-260400-
   Northeast Minnesota

CITY           SKY/WX    TMP DP  RH WIND       PRES   REMARKS
DULUTH         CLOUDY    56  55  97 N10       30.01R
ELY            CLOUDY    54  52  94 N3        30.04S
HIBBING        CLOUDY    52  51  97 N7        30.04S
EVELETH        CLOUDY    54  53  96 N5        30.04F
GRAND MARAIS     N/A     60  58  92 E12       30.01S
$$
MNZ029>031-032-039>041-046>048-054>057-064-260400-
   West Central Minnesota

CITY           SKY/WX    TMP DP  RH WIND       PRES   REMARKS
FERGUS FALLS   DRIZZLE   52  52 100 N7        30.06R
WHEATON        RAIN      50  48  93 NW6       30.08R
ALEXANDRIA     CLOUDY    54  51  90 NE8       30.04F
ELBOW LAKE     LGT RAIN  52  51  95 N3        30.05R
WADENA         DRIZZLE   52  52 100 N5        30.03F
GLENWOOD       DRIZZLE   54  52  94 NE7       30.03S
APPLETON       RAIN      54  52  94 NW8       30.03R
BENSON         RAIN      54  52  94 N6        30.03F
ORTONVILLE     RAIN      52  48  87 N10       30.05R
MADISON        LGT RAIN  54  54 100 N8        30.03S
WILLMAR        DRIZZLE   55  55 100 NE7       30.02F
$$
MNZ033>034-036-042>043-049>051-058-059-260400-
   Central Minnesota

CITY           SKY/WX    TMP DP  RH WIND       PRES   REMARKS
ST CLOUD       CLOUDY    55  55 100 N5        30.00F
SAUK CENTRE    LGT RAIN  54  51  92 N7        30.03S
PAYNESVILLE    HVY RAIN  54  54  98 N3        30.02F
AITKIN         LGT RAIN  54  52  94 N10       30.01S
PINE RIVER     CLOUDY    52  48  87 N6        30.07F
BRAINERD       LGT RAIN  54  52  93 N7        30.03S
STAPLES        RAIN      52  52 100 NE7       30.03F
LITTLE FALLS   DRIZZLE   54  50  87 CALM      30.03S
LITCHFIELD     DRIZZLE   55  55 100 N3        30.01F
BUFFALO        HVY RAIN  56  53  91 N3        30.01S
MAPLE LAKE     CLOUDY    57  55  95 N6        30.01F
HUTCHINSON     DRIZZLE   56  56  99 N3        30.01F
$$
MNZ037-044-045-052-053-260400-
   East Central Minnesota

CITY           SKY/WX    TMP DP  RH WIND       PRES   REMARKS
PRINCETON      DRIZZLE   57  55  94 N3        30.01F
MORA           RAIN      54  52  94 CALM      30.02S
RUSH CITY      CLOUDY    55  54  94 N5        30.00S
MOOSE LAKE     RAIN      54  52  94 N3        29.99F
HINCKLEY       DRIZZLE   55  55 100 N6        30.00F
CLOQUET        LGT RAIN  55  52  88 N6        30.01S
MCGREGOR       CLOUDY    55  52  88 N7        30.02F
$$
MNZ071>073-080-081-089-090-097-098-260400-
   Southwest Minnesota

CITY           SKY/WX    TMP DP  RH WIND       PRES   REMARKS
MONTEVIDEO     DRIZZLE   54  52  94 N3        30.02S
GRANITE FALLS  CLOUDY    55  54  95 N5        30.03S
CANBY          DRIZZLE   52  51  96 N7        30.05S
MARSHALL       LGT RAIN  52  52 100 N8        30.02F
REDWOOD FALLS  LGT RAIN  56  54  93 N5        30.00F FOG
OLIVIA         CLOUDY    54  52  94 N6        30.00F
PIPESTONE      LGT RAIN  52  52 100 N7        30.01F
WORTHINGTON    CLOUDY    54  53  97 N8        29.99F
JACKSON        RAIN      55  55 100 CALM      29.99F
TRACY          CLOUDY    54  54 100 N7        30.01F
SLAYTON        CLOUDY    53  45  75 N8        30.02S
$$
MNZ065>067-074>077-082>085-091>093-260400-
   South Central Minnesota

CITY           SKY/WX    TMP DP  RH WIND       PRES   REMARKS
MANKATO        LGT RAIN  58  57  97 N8        29.99S
NEW ULM        LGT RAIN  55  55 100 CALM      29.99F
ST JAMES       LGT RAIN  57  57 100 N6        30.00S
FAIRMONT       LGT RAIN  57  56  96 N8        29.99R
FARIBAULT      CLOUDY    59  57  94 N5        29.97F
OWATONNA       CLOUDY    61  57  88 N5        29.96S
WASECA         CLOUDY    59  57  94 N3        29.98S
ALBERT LEA     CLOUDY    64  63  94 CALM      29.95S FOG
$$
MNZ078>079-086>088-094>096-260400-
   Southeast Minnesota

CITY           SKY/WX    TMP DP  RH WIND       PRES   REMARKS
ROCHESTER      LGT RAIN  62  61  96 NE8       29.94F
RED WING       RAIN      63  57  82 NW3       29.95F
STANTON        DRIZZLE   60  58  92 N8        29.95F
DODGE CENTER   CLOUDY    61  59  94 N7        29.94F FOG
WINONA         DRIZZLE   70  68  94 CALM      29.95S
AUSTIN         LGT RAIN  63  61  94 CALM      29.95F
PRESTON        CLOUDY    64  62  94 E3        29.95F FOG
$$
ABBREVIATIONS USED IN REMARKS
   TC - TEMPERATURES IN CELSIUS
  WCI - WIND CHILL INDEX
   HX - HEAT INDEX
  VSB - VISIBILITY
$$




USA.gov is the U.S. government's official web portal to all federal, state and local government web resources and services.